Overview Statistics Trail Chart Weather Telemetry Raw packets
 

This is the latest recevied weather packets stored in our database for station/object IONIA-WX. If no packets are shown the sender has not sent any weather packets the latest 10 day(s).

<< 19 20 21 22 23 24 25 >>
Time Temp. Humidity Pressure Rain* Wind** Luminosity Snow
1788174022 20.56° C 83% 985.7 hPa 0 mm - - -
1788173118 20.56° C 81% 987 hPa 0 mm - - -
1788172222 20.56° C 83% 985.6 hPa 0 mm - - -
1788171324 20.56° C 83% 985.6 hPa 0 mm - - -
1788170423 20.56° C 83% 985.6 hPa 0 mm - - -
1788169525 20.56° C 83% 986.5 hPa 0 mm - - -
1788168618 20.56° C 87% 985.6 hPa 0 mm - - -
1788167725 20.56° C 87% 985.5 hPa 0 mm - - -
1788166818 20.56° C 87% 985.5 hPa 0 mm - - -
1788165924 20.56° C 85% 986.3 hPa 0 mm - - -
1788165022 20.56° C 85% 985.8 hPa 0 mm - - -
1788164124 20° C 85% 985.8 hPa 0 mm - - -
1788163222 20° C 85% 985.9 hPa 0 mm - - -
1788162317 20° C 82% 985.3 hPa 0 mm - - -
1788161422 20° C 82% 985.3 hPa 0 mm - - -
1788160524 20° C 82% 985.3 hPa 0 mm - - -
1788159622 20° C 83% 985.2 hPa 0 mm - - -
1788158792 20.56° C 83% 985.6 hPa 0 mm - - -
1788157822 20° C 83% 985.6 hPa 0 mm - - -
1788156923 20.56° C 83% 985.6 hPa 0 mm - - -
1788156019 20.56° C 83% 985.6 hPa 0 mm - - -
1788155118 20.56° C 83% 986.2 hPa 0 mm - - -
1788154221 20.56° C 84% 985.7 hPa 0 mm - - -
1788153323 20.56° C 84% 985.7 hPa 0 mm - - -
1788152423 20.56° C 84% 985.7 hPa 0 mm - - -

* Rain latest hour (hover to see other rain measurements)
** Current wind speed in m/s (hover to see current wind gust speed)